Location: Hohenraden
(53.6957°N, 9.8213°E)
Time: 14:48:59
(UTC+00:00)

Daily predictions for brighter satellites

Satellite Brightness Start Highest point End
(mag) Time Altitude Azimuth Time Altitude Azimuth Time Altitude Azimuth
NOSS 2-1 (D) 4.0 16:21:40 10° WSW 16:24:54 43° NNW 16:28:42 10° NE
SeaSat 1 3.9 16:22:13 10° ENE 16:25:44 20° NNE 16:29:15 10° NNW
Aureole 3 Rocket 4.4 16:22:38 10° SE 16:26:32 28° E 16:31:36 10° NNE
Cosmos 2219 3.3 16:20:45 10° NNW 16:26:33 72° NE 16:32:18 10° SE
H-2A R/B 3.5 16:22:58 10° E 16:26:47 20° NE 16:30:36 10° N
Cosmos 2266 Rocket 4.3 16:23:50 10° NNW 16:30:05 76° W 16:36:24 10° S
ATLAS 5 CENTAUR R/B 2.8 16:25:59 10° W 16:30:06 38° NNW 16:34:52 10° NE
H-2A R/B 3.5 16:25:43 10° S 16:30:08 57° WSW 16:34:37 10° NNW
USA 215 3.4 16:23:47 10° ENE 16:30:18 69° N 16:36:48 10° W
COSMOS 2455 4.4 16:25:45 10° WNW 16:30:30 23° N 16:35:17 10° NE
Okean-O 3.7 16:27:08 10° ESE 16:30:44 25° ENE 16:34:19 10° N
ATLAS 2AS CENTAUR R/B 3.4 16:23:48 10° NW 16:31:15 45° NNE 16:38:13 10° E
SMAP 3.1 16:26:37 10° SSE 16:31:16 84° ENE 16:35:59 10° NNW
Cosmos 1331 Rocket 4.2 16:26:54 10° S 16:31:53 53° ESE 16:36:55 10° NNE
FALCON 9 DEB 4.5 16:29:53 10° SSW 16:32:35 24° SSE 16:35:16 10° E
Cosmos 2082 4.1 16:28:09 10° NNW 16:33:40 44° NE 16:39:08 10° ESE
CSL-04 DEB 4.4 16:29:58 10° NNE 16:33:53 58° ESE 16:37:45 10° S
FALCON 9 DEB 4.4 16:31:51 10° SSW 16:34:33 26° SSE 16:37:16 10° E
Lacrosse 5 2.1 16:30:48 10° W 16:35:50 61° N 16:40:53 10° ENE
Cosmos 2278 Rocket 4.3 16:34:09 10° NW 16:37:18 15° NNW 16:40:27 10° NNE
Cosmos 1953 Rocket 3.5 16:32:58 10° N 16:37:23 68° ENE 16:41:49 10° SSE
AQUARIUS 4.2 16:35:02 10° SSE 16:39:32 88° ENE 16:44:04 10° NNW
Cosmos 968 Rocket 3.6 16:36:08 10° NNW 16:41:17 56° ENE 16:46:23 10° SE
ARGOS 4.5 16:37:56 10° E 16:41:46 20° NE 16:45:36 10° N
Cosmos 1408 3.8 16:39:14 10° NNE 16:42:09 22° ENE 16:45:05 10° ESE
GEOS 3 Rocket 4.2 16:37:08 10° E 16:42:09 42° NNE 16:47:15 10° NW
GENESIS II 4.4 16:40:07 10° SSW 16:44:07 64° SE 16:48:08 10° NE
ERBS 2.9 16:44:44 10° WNW 16:47:58 45° N 16:50:49 13° ENE
Cosmos 2058 Rocket 3.6 16:44:05 10° SSE 16:48:12 37° E 16:52:23 10° NNE
FALCON 9 DEB 4.2 16:46:15 10° SW 16:49:09 30° SSE 16:51:36 13° E
ADEOS Rocket 3.3 16:43:06 10° NNE 16:49:29 87° WNW 16:56:35 10° SSW
NOAA 12 4.4 16:44:13 10° S 16:49:32 77° WSW 16:54:54 10° NNW
Feng Yun 1-1 Rocket 4.4 16:43:41 10° SSE 16:49:33 68° ENE 16:55:27 10° NNW
CZ-4B R/B 3.8 16:45:29 10° S 16:51:01 65° WSW 16:56:30 10° NNW
Cosmos 1689 Rocket 3.6 16:49:48 10° NE 16:51:49 17° E 16:53:51 10° SE
Cosmos 1076 Rocket 4.4 16:50:23 10° N 16:54:00 26° ENE 16:57:36 10° SE
USA 281 3.7 16:48:24 10° SSE 16:54:55 66° WSW 17:01:29 10° NNW
FALCON 9 DEB 3.2 16:53:21 10° W 16:56:47 73° S 16:59:43 13° ESE
Cosmos 2227 Rocket 2.2 16:51:55 10° NNW 16:57:38 88° ENE 17:03:18 10° SSE
IRS-1C Rocket 4.1 16:52:47 10° SSE 16:57:58 62° ENE 17:03:12 10° NNW
Cosmos 1892 3.0 16:54:33 10° N 16:58:19 45° ENE 17:02:03 10° SSE
CZ-4C R/B 3.4 16:52:28 10° NW 16:58:24 40° NNE 17:04:26 14° E
FALCON 9 DEB 3.9 16:55:42 10° SW 16:58:41 34° SSE 17:00:47 16° E
Cosmos 2263 Rocket 3.2 16:54:31 10° NNW 16:59:26 28° NE 17:03:25 14° E
Cosmos 1818 4.5 16:54:38 10° WSW 16:59:52 45° NNW 17:05:08 10° NE
Cosmos 1110 Rocket 4.0 16:57:14 10° SSW 17:02:29 86° WNW 17:07:43 10° NNE
CSL-04 Rocket 4.4 16:57:52 10° ESE 17:02:44 33° ENE 17:07:35 10° N
Cosmos 1939 Rocket 2.8 16:59:11 10° SSE 17:03:04 60° ENE 17:06:55 10° N
H-2A R/B 2.6 17:00:10 10° N 17:04:18 59° WNW 17:08:20 10° SSW
Cosmos 1302 Rocket 4.2 16:59:23 10° S 17:04:30 54° ESE 17:09:40 10° NNE
USA 307 3.4 17:01:44 10° WNW 17:05:58 57° SSW 17:10:09 10° SE
COSMO-SKYMED 1 3.1 17:01:59 10° NNE 17:06:04 37° E 17:10:06 10° SSE
SAR-Lupe-4 3.9 17:04:24 10° NNE 17:07:51 42° E 17:11:16 10° S
USA 308 3.5 17:06:43 10° WNW 17:10:55 55° SSW 17:15:03 10° SE
Cosmos 1486 Rocket 4.0 17:05:36 10° NNW 17:10:59 89° ENE 17:16:20 10° SSE
CZ-4B R/B 1.1 17:08:40 10° NNE 17:11:55 77° ESE 17:15:04 10° S
Cosmos 1300 2.7 17:08:29 10° S 17:12:17 86° W 17:16:09 10° N
Cosmos 1825 2.9 17:10:32 10° N 17:13:57 31° ENE 17:17:21 10° SE
Cosmos 1400 Rocket 2.8 17:09:56 10° S 17:13:58 61° E 17:18:00 10° NNE
Cosmos 1697 Rocket 3.5 17:10:54 10° SSE 17:15:38 29° ESE 17:19:39 13° NE
ERS-2 2.0 17:12:01 10° NNE 17:15:42 88° ESE 17:19:20 10° SSW
Helios 1A Rocket 2.9 17:16:18 10° SSE 17:20:22 65° ENE 17:24:27 10° N
Cosmos 1503 Rocket 3.9 17:15:59 10° NNW 17:21:13 69° ENE 17:26:27 10° SE
BREEZE-M TANK 4.4 17:13:54 10° W 17:21:57 35° SSW 17:24:59 13° SE
Meteor 2-8 Rocket 4.4 17:16:17 10° S 17:22:21 69° E 17:28:29 10° NNE
YAOGAN 1 2.7 17:18:35 10° SE 17:22:46 50° ENE 17:26:58 10° N
S3M 4.2 17:17:51 10° SSE 17:23:37 45° E 17:29:28 10° NNE
CZ-4 R/B 4.4 17:19:36 10° SSE 17:23:46 77° ENE 17:27:58 10° NNW
Cosmos 1340 3.2 17:21:26 10° NNW 17:25:11 62° W 17:28:55 10° S
SAR-Lupe-1 4.0 17:22:10 10° NNE 17:25:44 61° ESE 17:29:15 10° S
CZ-2D R/B 3.1 17:24:36 10° SSE 17:28:24 80° ENE 17:32:14 10° NNW
Cosmos 1812 Rocket 4.3 17:25:12 10° SSE 17:29:00 30° E 17:32:49 10° NNE
Cosmos 44 3.2 17:24:46 10° SW 17:29:22 85° NW 17:33:25 15° NE
Meteor 2-1 Rocket 4.5 17:24:21 10° SSE 17:29:31 43° E 17:34:43 10° NNE
Okean O Rocket 3.7 17:26:04 10° SSW 17:29:55 30° W 17:33:48 10° NNW
Cosmos 2228 4.0 17:26:38 10° SSW 17:30:46 48° WNW 17:34:58 10° N
CZ-4 R/B 1.2 17:27:22 10° SSE 17:31:12 66° ENE 17:35:02 10° N
Cosmos 1726 Rocket 4.1 17:27:14 10° SSW 17:31:34 62° WNW 17:35:58 10° N
Cosmos 1346 Rocket 2.7 17:29:01 10° NNW 17:33:03 82° ENE 17:37:02 10° SSE
Cosmos 1417 Rocket 4.5 17:27:36 10° S 17:33:48 64° E 17:40:05 10° NNE
Cosmos 2058 2.7 17:29:40 10° N 17:33:48 76° ENE 17:37:54 10° SSE
Cosmos 1354 Rocket 3.9 17:28:45 10° NNW 17:34:02 76° ENE 17:39:19 10° SSE
SL-4 R/B 2.3 17:31:14 10° W 17:34:42 50° SSW 17:36:33 25° SE
Cosmos 2151 3.6 17:32:52 10° N 17:36:42 33° ENE 17:37:31 30° E
Cosmos 2297 Rocket 3.4 17:31:36 10° NW 17:36:59 45° WSW 17:42:19 10° S
Aureole 3 2.7 17:34:08 10° SSW 17:37:07 74° WNW 17:40:10 10° N
PSLV R/B 3.9 17:34:05 10° NNE 17:38:14 59° ESE 17:42:19 10° S
Cosmos 2369 Rocket 4.2 17:34:37 10° WNW 17:38:56 21° NNW 17:43:17 10° NNE
Cosmos 1980 Rocket 3.1 17:34:53 10° SSE 17:39:20 25° ESE 17:39:22 25° ESE
Timation 1 Rocket 4.3 17:34:16 10° NNW 17:40:19 79° NE 17:46:16 10° SE
Cosmos 1992 Rocket 4.2 17:36:06 10° S 17:41:04 46° ESE 17:45:23 14° NE
SJ-11-01 4.4 17:36:38 10° SE 17:41:09 53° ENE 17:45:44 10° N
Meteor 2-15 Rocket 4.5 17:38:10 10° S 17:44:07 55° E 17:50:07 10° NNE
CZ-2C R/B 3.2 17:39:18 10° SSE 17:45:02 78° ENE 17:50:36 10° NNW
CSL-04 Debris 4.1 17:40:09 10° SSE 17:45:32 65° ENE 17:50:59 10° NNW
Cosmos 1315 Rocket 2.9 17:43:54 10° S 17:47:45 51° E 17:51:37 10° NNE
CRYOSAT 2 4.4 17:43:38 10° NNE 17:48:25 52° E 17:53:09 10° SSE
Cosmos 1553 Rocket 4.0 17:45:35 10° S 17:51:56 90° E 17:58:13 10° N
Cosmos 220 Rocket 4.0 17:49:14 10° S 17:53:33 60° ESE 17:55:51 26° NE
Ariane Rocket 3.7 17:53:41 32° ENE 17:54:09 32° ENE 17:58:39 10° N
SKYMED 2 3.6 17:49:55 10° NNE 17:54:18 83° WNW 17:58:38 10° SSW
Cosmos 2227 4.4 17:48:52 10° NNW 17:54:22 52° NE 17:56:38 33° ESE
BREEZE-M R/B 4.1 17:51:17 10° W 17:55:09 51° S 17:59:00 24° ESE
USA 305 4.3 17:51:37 10° W 17:55:30 34° SW 17:58:10 17° SSE
Meteor 2-15 4.3 17:49:25 10° S 17:55:33 79° E 18:01:42 10° NNE
Meteor 2-10 Rocket 3.3 17:52:27 10° S 17:57:41 76° E 18:02:46 10° NNE
Cosmos 1455 2.0 17:55:49 10° S 17:59:34 70° E 18:03:25 10° NNE
NOSS 3-4 (A) 3.7 17:54:11 10° NW 18:01:00 82° NE 18:05:39 26° SE
NOSS 3-4 (C) 3.7 17:54:18 10° NW 18:01:06 82° NE 18:05:43 26° SE
USA 306 4.4 17:58:09 10° W 18:01:58 31° SW 18:04:25 18° SSE
Cosmos 2360 4.4 17:56:53 10° S 18:02:20 48° ESE 18:04:36 31° ENE
SeaSat 1 2.4 18:00:38 36° ESE 18:02:32 62° NE 18:07:26 10° NNW
H-2A R/B 2.1 18:00:01 10° SSE 18:05:29 82° ENE 18:10:58 10° NNW
Cosmos 1943 Rocket 4.4 18:02:28 10° NW 18:05:33 15° NNW 18:08:39 10° NNE
MOS 1 Rocket 3.4 18:02:09 10° NNE 18:06:45 53° E 18:11:36 10° S
Okean-O 3.3 18:02:35 10° S 18:06:56 55° W 18:11:19 10° NNW
FALCON 9 DEB 3.3 18:05:08 10° WSW 18:07:57 59° SSW 18:07:57 59° SSW
FALCON 9 DEB 3.4 18:07:05 10° WSW 18:09:47 56° SW 18:09:47 56° SW
Cosmos 2278 4.0 18:07:17 10° S 18:12:37 43° ESE 18:12:45 43° ESE
USA 215 3.2 18:10:10 35° E 18:13:08 76° NNE 18:19:41 10° WNW
NOSS 3-3 (A) 4.0 18:07:36 10° SSW 18:13:26 60° SE 18:16:10 35° ENE
NOSS 3-3 (C) 4.0 18:07:43 10° SSW 18:13:33 60° SE 18:16:14 35° ENE
Cosmos 1745 Rocket 4.5 18:07:46 10° NNW 18:13:59 64° W 18:20:14 10° S
ATLAS 5 CENTAUR R/B 3.3 18:11:49 10° WNW 18:15:56 28° N 18:17:34 24° NNE
Cosmos 1408 4.0 18:13:53 10° NNW 18:17:18 38° W 18:20:44 10° SSW
Meteor 2-3 Rocket 3.8 18:12:31 10° N 18:18:10 56° ENE 18:19:36 45° ESE
COSMOS 2455 4.0 18:13:14 10° NW 18:18:23 28° NNE 18:19:43 26° NE
Lacrosse 5 1.9 18:14:10 10° WNW 18:19:15 71° NNE 18:20:11 56° ENE
GEOS 3 Rocket 3.8 18:17:20 31° SSE 18:20:00 74° SW 18:25:26 10° NW
Cosmos 44 Rocket 3.9 18:16:21 10° SSW 18:19:58 40° SSE 18:19:58 40° SSE
ARGOS 3.0 18:17:21 19° SSE 18:21:20 84° ENE 18:26:48 10° NNW
HJ-1C 3.9 18:23:13 55° NW 18:23:13 55° NW 18:26:03 10° NNW
Cosmos 1689 Rocket 3.9 18:21:51 21° NNW 18:23:04 30° WNW 18:25:39 10° SW
ATLAS 2AS CENTAUR R/B 2.8 18:15:25 10° NW 18:23:07 86° NE 18:26:17 38° SE
Cosmos 2278 Rocket 4.1 18:20:32 10° NNW 18:23:53 16° NNE 18:24:58 15° NNE
ERBS 3.2 18:21:11 10° WNW 18:23:42 46° NW 18:23:42 46° NW
FALCON 9 DEB 4.2 18:21:46 10° WSW 18:24:00 40° WSW 18:24:00 40° WSW
Cosmos 1656 4.0 18:20:15 10° SW 18:25:49 64° NW 18:30:38 14° NNE
SL-08 RB Rocket 3.6 18:26:12 67° NE 18:26:12 67° NE 18:30:32 10° N
Cosmos 1844 Rocket 3.7 18:26:50 10° NNW 18:31:40 31° NE 18:31:40 31° NE
SJ 16-02 2.8 18:31:22 10° NNW 18:33:44 26° N 18:33:44 26° N
Cosmos 2369 3.6 18:31:17 10° SSW 18:37:00 85° ESE 18:39:11 40° NE
Cosmos 1777 Rocket 4.0 18:32:07 10° NNW 18:37:22 81° WSW 18:38:35 53° SSE
Cosmos 2184 Rocket 4.0 18:33:57 10° N 18:40:11 56° ENE 18:40:25 56° E
COSMO-SKYMED 1 4.3 18:38:17 10° N 18:42:11 33° WNW 18:46:04 10° SW
CSL-04 Rocket 4.3 18:37:26 10° S 18:42:51 55° W 18:48:16 10° NNW
Meteor 2-17 Rocket 4.2 18:37:15 10° N 18:43:20 76° ENE 18:44:33 58° SE
Cosmos 1709 Rocket 4.4 18:37:11 10° NNW 18:43:31 66° W 18:49:49 10° S
Cosmos 2263 Rocket 2.1 18:38:19 10° NNW 18:44:03 86° WSW 18:45:08 61° SSE
CZ-4C R/B 2.8 18:41:09 10° NW 18:47:56 74° NE 18:49:38 56° ESE
Cosmos 1825 4.2 18:46:08 10° NNW 18:49:24 28° W 18:52:22 11° SSW
Cosmos 2074 Rocket 3.8 18:51:53 10° N 18:58:06 74° ENE 18:58:06 74° ENE
Cosmos 1697 Rocket 3.0 18:53:40 10° SW 18:59:15 65° NW 19:01:26 37° NNE
CZ-4 R/B 4.3 19:04:23 10° SW 19:06:40 15° W 19:08:58 10° NW
Resurs 01 Rocket 4.0 19:11:38 15° N 19:11:38 15° N 19:12:24 10° N
Cosmos 2315 Rocket 4.2 19:06:35 10° SSW 19:12:44 66° WNW 19:18:56 10° N
SL-4 R/B 4.5 19:10:59 10° W 19:12:08 16° WSW 19:12:08 16° WSW
Cosmos 1980 Rocket 2.9 19:17:13 10° SW 19:21:13 47° SW 19:21:13 47° SW
Cosmos 2369 Rocket 4.5 19:22:23 10° NNW 19:25:17 14° N 19:26:42 13° NNE
Ariane Rocket 4.0 19:33:54 44° WNW 19:33:54 44° WNW 19:37:57 10° NNW
SeaSat 1 4.1 19:40:26 29° WSW 19:40:26 29° WSW 19:44:39 10° NW
H-2A R/B 4.5 19:41:36 10° SW 19:45:34 20° W 19:49:32 10° NW
Cosmos 1943 Rocket 4.5 19:48:53 10° NNW 19:51:11 14° N 19:51:11 14° N
USA 215 3.7 19:57:31 54° WSW 19:57:31 54° WSW 20:02:50 10° WNW
ATLAS 5 CENTAUR R/B 3.9 19:56:47 10° NW 19:59:05 26° NNW 19:59:05 26° NNW
Lacrosse 5 3.9 19:57:16 10° WNW 19:59:23 24° WNW 19:59:23 24° WNW
COSMOS 2455 4.1 19:59:23 10° NW 20:02:51 35° NNW 20:02:51 35° NNW
Cosmos 2278 Rocket 4.2 20:04:37 10° NNW 20:06:48 21° N 20:06:48 21° N
ATLAS 2AS CENTAUR R/B 4.0 20:07:02 10° NW 20:13:23 31° WSW 20:13:44 31° WSW
SJ 16-02 4.3 20:10:01 10° NW 20:10:43 14° NW 20:10:43 14° NW
Cosmos 1844 Rocket 4.4 20:10:39 10° NW 20:13:19 29° NW 20:13:19 29° NW
Cosmos 2263 Rocket 4.4 20:23:24 10° WNW 20:26:51 19° W 20:26:51 19° W
CZ-4C R/B 3.9 20:29:47 10° NW 20:34:49 38° W 20:34:49 38° W
